SCP
0 0 1 1 0 0 0 0 0 0 0 0 0 0 0 0 0 0 0 1 1 2 2 2 2 2 1 1 1 1 1 1 1 1 1 1 1 1 1 1 0 0 1
1 0 0 0 0 0 0 0 0 0 0 0 0 0 0 0 0 0 0 1 1 2 2 2 2 1 1 1 1 1 1 1 1 1 1 1 1 1 1 1 1 1 0
0 0 0 0 0 0 0 0 0 0 0 0 0 0 0 0 0 0 0 1 1 1 2 2 2 2 1 1 1 1 1 1 1 1 1 1 1 1 1 1 1 1 1
0 0 0 0 0 0 0 0 0 0 0 0 0 0 0 0 0 0 0 1 1 1 1 2 2 2 2 2 2 1 1 1 1 1 1 1 1 1 1 1 1 1 1
0 0 0 0 0 0 0 0 0 0 0 0 0 0 0 0 0 0 0 1 1 1 1 1 2 2 2 2 2 2 2 1 1 2 1 1 1 1 1 0 0 1 1
1 0 0 0 0 0 0 0 0 0 0 0 0 0 0 0 0 0 0 0 1 1 1 1 1 2 2 2 2 2 2 2 2 2 2 1 1 1 1 1 0 0 1
1 0 0 0 0 0 0 0 0 0 0 0 0 0 0 0 0 0 0 0 1 1 1 1 1 1 1 2 2 2 2 2 2 2 2 2 1 1 1 1 1 1 0
0 0 0 0 0 1 1 1 0 0 0 0 0 0 0 0 0 0 0 0 1 1 1 1 1 1 1 1 1 1 2 2 2 2 2 2 1 1 1 1 1 1 1
1 1 1 1 1 1 1 1 1 1 1 0 0 0 0 0 0 0 0 0 0 1 1 1 1 1 1 1 1 1 1 2 2 2 2 2 1 1 1 1 1 1 1
1 1 1 1 1 1 1 1 1 1 1 1 0 0 0 0 0 0 0 0 0 0 1 1 1 1 1 1 1 1 1 1 2 2 2 1 1 1 1 1 1 1 1
1 1 1 1 1 1 1 1 1 1 1 1 1 0 0 0 0 0 0 0 0 0 1 1 1 1 1 1 1 1 1 1 1 1 1 1 1 1 1 1 1 1 1
1 1 1 1 1 1 1 1 1 1 1 1 1 1 1 1 1 1 1 1 0 0 0 0 1 1 1 1 1 2 2 1 1 1 1 1 1 1 2 2 1 1 1
1 1 1 1 1 1 1 1 1 1 1 1 1 1 1 1 1 1 1 1 1 0 0 0 0 1 1 1 1 2 2 1 1 1 1 1 1 1 1 2 2 1 1
2 2 2 2 1 1 1 1 1 1 1 1 1 2 2 2 2 2 2 1 1 1 0 0 0 1 1 1 1 1 1 1 1 1 0 0 1 1 1 1 1 1 1
2 2 2 2 2 1 1 1 1 1 1 1 2 3 3 3 3 3 2 2 1 1 1 1 0 1 1 1 1 1 1 1 1 0 0 0 0 0 1 1 1 1 1
1 2 2 2 2 2 2 2 2 2 2 2 2 3 4 4 4 4 3 3 2 1 1 1 1 1 1 1 1 1 1 1 1 0 0 0 0 0 0 0 1 1 1
1 2 2 2 2 2 2 2 2 2 2 2 2 3 4 5 5 5 5 4 2 1 1 1 1 1 1 1 1 1 1 1 1 1 0 0 0 0 0 0 0 0 0
2 2 2 2 3 3 3 3 2 3 3 3 3 3 3 4 5 5 5 4 2 1 1 1 1 1 1 1 1 1 1 1 1 1 0 0 0 0 0 0 0 0 0
3 3 3 3 3 3 3 3 3 3 3 3 3 3 3 3 3 4 5 3 2 1 1 1 1 1 1 2 2 2 1 1 1 1 0 0 0 0 0 0 0 0 0
4 4 4 4 4 4 3 3 3 3 3 3 3 2 2 3 3 3 3 3 2 1 1 1 1 1 1 2 2 2 2 2 1 1 1 1 1 0 0 0 0 0 0
4 4 5 5 4 3 3 4 4 4 4 3 3 3 3 3 4 3 3 2 2 2 2 2 2 2 1 2 2 2 2 2 2 1 1 1 1 1 1 0 0 0 0
6 6 6 5 4 4 3 3 4 4 5 5 4 4 3 3 3 3 3 3 2 2 2 2 2 2 2 2 2 2 2 2 2 2 1 2 2 1 1 1 1 0 0
8 7 5 4 4 4 3 3 3 4 5 5 5 5 4 3 3 3 3 3 2 2 2 2 2 2 2 2 2 2 2 3 2 2 2 2 2 2 1 1 1 0 0
8 6 4 3 3 3 3 2 3 4 4 5 6 6 4 3 2 2 3 3 2 2 1 1 2 2 2 2 2 2 3 3 3 3 3 2 2 2 2 1 1 1 0
7 6 4 3 2 2 2 2 3 4 4 5 6 6 4 2 1 2 2 2 2 1 1 1 1 1 1 1 1 2 2 2 3 3 3 2 2 2 1 1 1 0 0
7 5 3 3 3 2 2 2 2 4 5 5 5 5 3 2 1 1 2 2 2 1 1 1 1 1 1 1 1 1 1 2 2 2 2 2 2 1 1 1 0 0 0
Wind_Speed
4 4 3 3 3 3 3 3 3 3 2 2 2 3 2 3 3 3 3 11 12 12 13 13 13 12 12 12 11 11 11 11 10 9 10 10 10 10 10 10 9 9 9
4 4 4 3 3 3 3 3 3 3 2 2 2 2 3 3 3 4 3 6 11 12 12 13 13 13 13 12 12 12 12 11 11 10 10 10 10 11 11 11 11 10 10
5 5 4 4 3 3 4 3 2 1 2 2 2 2 2 3 3 4 4 3 5 10 12 12 13 13 13 13 13 12 12 12 11 11 11 10 10 10 11 11 11 11 11
6 5 4 4 4 3 3 3 2 2 1 1 1 2 1 2 3 3 3 4 4 5 8 13 12 12 13 13 13 13 12 12 11 12 12 11 12 12 12 12 12 11 11
6 5 4 3 4 3 3 3 3 3 2 1 2 2 2 2 3 4 4 5 5 5 4 8 12 12 13 14 13 13 12 12 12 12 13 13 12 12 13 12 12 12 12
5 5 4 4 4 3 3 3 3 2 2 2 2 2 2 2 2 3 4 4 4 6 6 6 5 8 12 13 13 13 13 13 12 13 13 13 13 13 12 12 12 12 12
6 5 4 4 4 4 4 4 3 2 2 1 1 1 2 2 2 3 3 3 4 5 5 5 4 4 5 10 11 11 12 13 12 13 13 13 13 13 13 13 13 12 13
6 6 5 4 5 4 4 4 3 2 2 2 2 1 2 3 2 2 2 3 4 3 4 6 5 5 4 3 6 10 11 12 12 13 12 13 13 12 12 13 13 13 13
6 5 6 5 5 5 4 5 5 4 3 2 3 3 2 2 2 2 2 2 3 3 3 3 5 6 6 4 4 8 12 11 12 13 13 12 12 11 11 12 12 13 12
6 6 6 6 5 4 5 5 4 4 4 3 2 2 3 4 2 2 3 2 3 3 3 3 4 5 6 5 6 8 11 12 12 12 12 11 11 11 11 11 12 12 12
5 6 6 5 5 5 5 5 4 4 4 4 3 2 1 1 2 2 3 3 2 3 3 3 3 3 4 5 5 7 10 11 10 11 11 10 10 10 10 11 11 11 12
4 5 6 5 5 5 6 6 5 5 4 4 3 3 3 2 3 3 3 3 3 3 3 2 2 3 3 3 6 7 8 8 9 9 8 8 8 9 9 10 11 11 11
4 5 6 5 5 5 6 5 5 5 5 5 5 4 3 3 3 3 2 2 2 2 2 2 2 3 3 3 3 6 6 6 7 7 7 7 7 7 8 9 9 10 10
5 5 6 6 6 6 6 5 5 6 5 6 6 5 3 4 3 3 3 3 2 2 2 3 2 2 2 2 3 5 4 6 7 7 7 7 7 7 7 7 7 7 7
4 4 5 5 5 6 6 5 4 5 5 5 5 5 4 3 3 3 3 4 4 3 3 3 2 2 2 2 3 3 3 5 7 7 7 7 7 7 7 6 6 7 6
4 4 4 5 5 5 5 5 4 4 4 4 4 4 4 3 2 2 3 3 3 4 4 3 3 2 2 2 3 3 3 5 6 7 7 7 7 6 6 6 6 6 6
4 4 4 4 4 5 4 4 4 4 4 4 4 4 4 3 2 2 2 2 3 3 4 3 2 2 2 2 2 2 2 3 3 6 6 7 7 7 6 6 6 6 6
5 5 4 4 5 4 4 4 5 4 5 5 5 4 4 3 3 3 2 3 3 3 3 4 3 2 3 3 2 3 2 2 3 5 6 7 7 7 7 7 7 7 6
4 4 4 4 4 5 4 4 5 5 5 5 5 5 5 4 4 3 3 3 2 2 2 3 3 2 2 2 1 2 2 2 3 3 5 5 6 6 6 7 7 7 7
4 4 4 4 5 5 5 4 4 4 4 4 4 4 4 4 5 4 3 3 3 2 2 2 2 2 2 2 1 2 2 2 2 2 2 3 4 5 6 6 7 7 7
5 5 5 4 4 4 4 4 4 4 4 3 3 4 4 5 6 5 3 3 3 2 2 2 3 2 2 1 2 2 3 2 2 2 1 2 2 2 4 6 7 8 8
4 4 5 5 4 4 4 4 4 3 3 3 3 2 3 3 4 4 5 5 5 4 4 3 3 4 4 4 3 3 2 2 2 2 2 2 2 3 3 4 7 8 8
3 4 4 5 4 4 4 4 4 3 3 3 3 3 3 2 2 2 3 3 4 5 6 5 5 5 5 4 3 3 3 3 4 3 2 3 2 3 3 4 7 7 7
3 3 4 4 3 3 4 4 4 3 2 3 3 3 3 3 2 3 2 2 2 3 4 4 4 5 4 4 5 5 5 3 2 2 2 2 3 3 3 3 5 6 7
2 3 3 3 3 3 4 4 4 2 2 2 2 3 3 3 3 2 2 2 2 3 4 3 3 4 5 4 3 2 2 2 2 3 2 2 2 2 2 3 4 6 7
3 2 2 3 4 3 3 3 4 2 2 1 1 2 3 3 2 2 2 2 3 4 2 3 3 3 3 3 3 4 4 3 2 3 3 2 2 1 2 2 2 2 3
Wind_Direction
157 160 159 160 167 165 172 174 177 191 201 215 220 207 191 184 179 179 188 193 194 197 200 202 204 207 208 208 210 211 212 212 210 212 213 213 214 215 215 216 216 216 217
158 159 162 168 176 178 181 181 184 187 201 210 217 212 202 195 187 185 191 199 202 202 206 210 213 212 213 214 216 216 215 216 217 216 217 216 215 217 219 220 220 221 222
158 160 163 174 182 176 174 176 178 173 196 201 209 225 207 201 201 199 193 196 203 211 213 216 219 218 219 221 222 220 220 219 219 218 219 218 218 220 221 221 223 224 225
160 158 167 180 181 172 170 173 174 176 200 198 213 237 228 207 207 210 200 200 201 213 218 220 221 220 223 225 225 223 222 221 220 220 220 221 222 223 225 227 228 227 225
167 165 172 177 172 170 173 183 173 173 184 207 224 242 238 222 218 218 213 210 206 211 214 222 224 224 227 227 226 226 225 224 223 224 227 228 229 228 228 230 231 229 227
173 170 173 176 169 166 176 177 172 178 184 191 227 265 268 251 233 220 217 213 219 220 217 221 222 227 228 229 228 228 230 230 228 229 231 233 234 231 229 230 230 230 230
173 169 174 173 173 176 185 180 168 175 199 156 97 339 319 288 248 235 222 209 224 225 219 219 217 217 228 231 232 232 234 234 233 234 234 236 236 233 230 229 228 230 233
175 175 173 178 179 176 179 182 170 165 201 169 146 105 336 328 303 252 232 220 227 228 229 223 216 213 216 221 226 228 233 237 239 238 237 236 236 233 229 228 229 232 235
181 181 181 181 183 179 185 192 183 176 191 202 174 159 168 233 291 303 274 246 240 232 237 233 220 216 213 214 223 230 234 237 241 242 239 236 234 230 227 230 231 231 233
187 189 187 185 184 183 186 196 190 182 177 197 214 204 187 176 187 282 302 278 258 241 238 237 233 224 220 217 221 221 229 234 239 241 240 237 233 228 227 229 232 232 231
196 196 190 187 188 189 192 197 194 192 185 191 197 202 214 216 189 185 263 285 287 264 245 228 228 229 225 222 223 228 229 232 236 238 239 237 232 226 225 229 233 233 232
204 204 196 193 195 195 197 199 201 200 199 198 202 196 190 196 204 194 223 252 265 272 262 237 224 235 230 223 230 226 226 226 232 234 235 233 231 228 228 230 233 234 234
206 210 204 198 202 204 201 196 201 209 204 204 208 211 209 214 202 188 197 236 257 276 287 275 239 232 234 229 235 227 226 222 227 228 226 229 229 228 229 232 234 234 234
208 205 202 203 206 204 207 202 206 212 208 209 218 212 210 220 208 198 190 192 252 281 278 266 273 234 229 228 235 221 227 218 217 219 220 223 224 224 226 227 230 231 234
207 202 202 204 208 206 206 201 210 215 210 210 215 212 214 224 212 209 199 187 186 235 266 258 261 261 240 227 227 222 226 224 220 218 218 222 223 221 222 223 224 225 226
205 198 202 205 207 207 204 200 208 215 207 214 211 209 218 223 219 209 202 201 189 194 238 248 239 249 257 264 245 239 235 231 221 214 214 218 220 218 220 223 222 223 224
202 207 204 203 209 211 207 203 208 200 206 220 222 213 222 217 214 217 207 202 205 190 226 259 246 246 244 253 270 263 257 244 236 219 219 222 222 218 220 222 220 221 223
206 208 207 204 208 212 208 204 212 210 208 220 223 214 222 216 213 223 215 219 221 210 209 244 259 247 237 230 231 245 255 249 243 226 223 224 222 222 222 224 224 225 226
207 204 199 202 207 208 209 213 211 214 213 218 216 213 220 212 220 225 224 231 235 234 211 219 251 252 251 239 245 266 258 263 259 245 229 228 224 224 226 228 230 229 229
202 202 202 205 209 210 210 215 216 220 219 217 216 216 220 211 214 217 223 229 224 218 211 220 244 252 257 254 209 238 265 261 259 256 247 237 230 230 233 233 233 231 231
203 196 194 200 204 203 213 208 210 214 211 215 219 218 217 210 209 211 213 219 210 210 214 220 236 250 253 238 228 221 232 250 256 226 227 242 231 237 241 241 237 237 233
203 194 194 197 201 211 209 198 194 198 195 199 212 220 221 225 221 223 223 220 208 211 219 224 236 239 247 239 233 223 214 221 257 234 192 248 214 237 246 242 237 234 231
199 196 201 198 200 207 199 195 187 187 190 202 210 215 227 233 223 227 238 248 246 239 225 219 229 237 237 229 218 228 220 215 234 220 183 252 233 246 253 254 240 232 228
199 197 203 200 197 208 202 198 190 187 193 207 211 208 206 223 224 217 229 262 278 275 257 234 227 238 239 229 214 218 218 226 255 243 177 226 239 247 263 257 240 226 229
207 208 194 195 196 211 202 192 183 176 189 222 224 206 193 207 233 206 185 237 280 287 291 280 258 255 257 249 222 190 194 201 256 259 209 196 227 255 263 262 259 239 233
205 197 189 200 195 212 214 194 177 172 186 234 258 241 211 209 225 209 197 213 251 267 289 315 317 307 275 257 231 200 194 202 228 248 226 193 214 206 274 260 252 252 242